Погода в Базковской

Россия / Ростовская область     49°35′38″N   41°43′39″E
темп.,
°C
ветер,
м/с
пор.,
м/с
влажн.,
%
обл.,
%
осадки,
мм/ч
давл.,
гПа
погр.,
м
6 марта, сб
сб600:000ссв2499100 0.1 1014150
03:000св2498100 0.9 1015193
06:00−1ссв3597100 0.9 1014288
09:00−1ссв4695100 2.1 1015367
12:00−1с4694100 1.2 1014534
15:00−1с4694100 1.8 1013479
18:00−2ссз5892100 0.9 1014637
21:00−3ссз71189100 1.1 1016690
7 марта, вс
вс700:00−5ссз6108671 0.0 1017662
03:00−6сз597952 0.0 1019730
06:00−6зсз48760 0.0 1020466
09:00−4зюз69710 0.0 1021965
12:00−1зюз8116868 0.1 10181264
15:000зюз9126083 0.1 10151255
18:00−1юз8156287 0.0 1013948
21:00−1юз9176644 0.0 1012979
8 марта, пн
пн800:00−1зюз9177234 0.0 1010880
03:00−1зюз9167650 0.0 1010876
06:00−2зюз8148296 0.0 1009790
09:00−1зюз9137895 0.0 1010852
12:00+1зюз91372100 0.0 10091170
15:00+2з81267100 0.1 10091420
18:000зсз599799 0.8 1010523
21:00−2ссз367798 1.1 1013258
9 марта, вт
вт900:00−3ссв117599 0.0 101421
03:00−3в126898 0.0 101474
06:00−3в2373100 0.0 1013199
09:00−3в3480100 0.1 1013356
12:00−2в4585100 0.4 1013459
15:00−3св3490100 1.1 1013385
18:00−4ссв3590100 0.4 1013410
21:00−4с2577100 0.6 1016429
10 марта, ср
ср1000:00−5ссз3492100 0.2 1017339
03:00−6с5781100 0.6 1019753
06:00−8ссз687497 0.1 1022678
09:00−9ссз576752 0.1 1024691
12:00−6ссз46520 0.0 1025995
15:00−5ссз45420 0.0 10251207
18:00−6ссз225335 0.0 102442
21:00−7ю115834 0.0 102522